sat.trackr.live / text

‹ back to catalog

STARLINK-2711

NORAD 48673 · 2021-044AM

PAYLOAD ACTIVE UNKNOWN

§ Identity

Operator
Country
US
Launch date
2021-05-26
Launch site
AFETR
Launch vehicle
Mass (kg)
RCS (m²)

Purposes: comms

External: N2YO · Heavens-Above · Gunter

§ Orbital elements

Epoch: 2026-09-19T19:32:29.757120Z

Period
94.01 min
Inclination
53.1600°
Eccentricity
0.0001265
Mean motion
15.31695234 rev/d
Perigee alt
469.9 km
Apogee alt
471.6 km
Semi-major
6,848.9 km
B*
-8.1382e-7
RAAN
291.9968°
Arg perigee
89.7190°
Mean anomaly
270.3956°
Rev number
29,353

§ Raw data

STARLINK-27111 48673U 21044AM  26262.81423330 -.00000390  00000+0 -81382-6 0  99922 48673  53.1600 291.9968 0001265  89.7190 270.3956 15.31695234293530

JSON: /api/v1/satellites/48673 · /tle

For live sub-satellite position, see the globe view (requires WebGL).

§ Visibility from observer

Set your observer location to see the next 7 days of passes ≥ 10°. The values pass through the URL so the page stays shareable.

No JS? Fill the form by hand. The geolocation button needs JavaScript.